• In Uzbekistan
  • List of Countries
  • For 7 days
  • Water Temperature
  • Satellite Maps
  • Weather Map
  • Weather Widgets
  • user-avatar
    Login

    Hourly Weather Novolaspa

    Today, 18 December, Monday

    Time Temperature Precipitation Wind Pressure Humidity
    00:00 +5°C° 0 mm 6 mps 746 mmHg 82%
    01:00 +4°C° 0.1 mm 6 mps 746 mmHg 83%
    02:00 +4°C° 0.1 mm 7 mps 746 mmHg 84%
    03:00 +4°C° 0 mm 6 mps 746 mmHg 86%
    04:00 +4°C° 0.1 mm 6 mps 745 mmHg 87%
    05:00 +4°C° 0.1 mm 6 mps 745 mmHg 88%
    06:00 +4°C° 0.1 mm 6 mps 745 mmHg 88%
    07:00 +4°C° 0.2 mm 7 mps 745 mmHg 87%
    08:00 +4°C° 0.2 mm 7 mps 745 mmHg 86%
    09:00 +4°C° 0 mm 8 mps 744 mmHg 84%
    10:00 +5°C° 0.3 mm 8 mps 744 mmHg 82%
    11:00 +5°C° 0.3 mm 8 mps 744 mmHg 80%
    12:00 +5°C° 0.3 mm 8 mps 744 mmHg 78%
    13:00 +6°C° 0 mm 7 mps 744 mmHg 78%
    14:00 +6°C° 0 mm 7 mps 745 mmHg 79%
    15:00 +8°C° 0 mm 7 mps 745 mmHg 80%
    16:00 +7°C° 0 mm 6 mps 745 mmHg 81%
    17:00 +5°C° 0 mm 6 mps 745 mmHg 82%
    18:00 +5°C° 0 mm 6 mps 746 mmHg 83%
    19:00 +5°C° 0 mm 5 mps 746 mmHg 81%
    20:00 +5°C° 0 mm 5 mps 747 mmHg 80%
    21:00 +3°C° 0 mm 5 mps 747 mmHg 79%
    22:00 +4°C° 0 mm 4 mps 747 mmHg 79%
    23:00 +3°C° 0 mm 4 mps 747 mmHg 79%

    Tomorrow, 19 December, Tuesday

    Time Temperature Precipitation Wind Pressure Humidity
    00:00 +3°C° 0 mm 4 mps 748 mmHg 80%
    01:00 +2°C° 0 mm 3 mps 748 mmHg 80%
    02:00 +2°C° 0 mm 3 mps 748 mmHg 81%
    03:00 +2°C° 0 mm 3 mps 748 mmHg 81%
    04:00 +3°C° 0 mm 2 mps 748 mmHg 81%
    05:00 +2°C° 0 mm 2 mps 748 mmHg 81%
    06:00 +2°C° 0 mm 2 mps 749 mmHg 82%
    07:00 +2°C° 0 mm 2 mps 749 mmHg 81%
    08:00 +2°C° 0 mm 2 mps 749 mmHg 81%
    09:00 +2°C° 0 mm 2 mps 750 mmHg 80%
    10:00 +2°C° 0 mm 2 mps 750 mmHg 76%
    11:00 +2°C° 0 mm 2 mps 750 mmHg 72%
    12:00 +3°C° 0 mm 2 mps 751 mmHg 68%
    13:00 +3°C° 0 mm 2 mps 751 mmHg 65%
    14:00 +3°C° 0 mm 2 mps 751 mmHg 62%
    15:00 +4°C° 0 mm 2 mps 751 mmHg 60%
    16:00 +3°C° 0 mm 2 mps 751 mmHg 63%
    17:00 +3°C° 0 mm 2 mps 751 mmHg 66%
    18:00 +1°C° 0 mm 3 mps 752 mmHg 69%
    19:00 +1°C° 0 mm 3 mps 752 mmHg 70%
    20:00 +1°C° 0 mm 3 mps 752 mmHg 70%
    21:00 +1°C° 0 mm 3 mps 752 mmHg 71%
    22:00 +2°C° 0.1 mm 2 mps 753 mmHg 72%
    23:00 +2°C° 0.1 mm 2 mps 753 mmHg 73%

    Day after tomorrow, 20 December, Wednesday

    Time Temperature Precipitation Wind Pressure Humidity
    00:00 +1°C° 0.1 mm 2 mps 753 mmHg 75%
    01:00 +1°C° 0 mm 2 mps 753 mmHg 77%
    02:00 +1°C° 0 mm 2 mps 753 mmHg 79%
    03:00 +1°C° 0 mm 1 mps 754 mmHg 81%
    04:00 +1°C° 0 mm 1 mps 754 mmHg 82%
    05:00 +1°C° 0 mm 1 mps 754 mmHg 84%
    06:00 0°C° 0 mm 1 mps 754 mmHg 85%
    07:00 0°C° 0 mm 1 mps 754 mmHg 84%
    08:00 0°C° 0 mm 1 mps 755 mmHg 83%
    09:00 0°C° 0 mm 1 mps 755 mmHg 82%
    10:00 +1°C° 0 mm 1 mps 755 mmHg 76%
    11:00 +2°C° 0 mm 1 mps 756 mmHg 70%
    12:00 +3°C° 0 mm 1 mps 756 mmHg 64%
    13:00 +3°C° 0 mm 1 mps 756 mmHg 62%
    14:00 +3°C° 0 mm 1 mps 756 mmHg 60%
    15:00 +4°C° 0 mm 1 mps 756 mmHg 58%
    16:00 +3°C° 0 mm 1 mps 756 mmHg 61%
    17:00 +3°C° 0 mm 1 mps 756 mmHg 64%
    18:00 +1°C° 0 mm 0 mps 756 mmHg 66%
    19:00 +1°C° 0 mm 0 mps 757 mmHg 68%
    20:00 0°C° 0 mm 0 mps 757 mmHg 69%
    21:00 +1°C° 0 mm 1 mps 757 mmHg 71%
    22:00 +1°C° 0 mm 1 mps 757 mmHg 72%
    23:00 +1°C° 0 mm 1 mps 757 mmHg 73%

    21 December, Thursday

    Time Temperature Precipitation Wind Pressure Humidity
    00:00 +1°C° 0 mm 1 mps 757 mmHg 73%
    01:00 -2°C° 0 mm 2 mps 758 mmHg 74%
    02:00 -2°C° 0 mm 2 mps 758 mmHg 75%
    03:00 -2°C° 0 mm 2 mps 758 mmHg 76%
    04:00 -2°C° 0 mm 2 mps 758 mmHg 77%
    05:00 -2°C° 0 mm 2 mps 758 mmHg 77%
    06:00 -3°C° 0 mm 2 mps 758 mmHg 78%
    07:00 -3°C° 0 mm 2 mps 758 mmHg 78%
    08:00 -3°C° 0 mm 2 mps 758 mmHg 78%
    09:00 -3°C° 0 mm 2 mps 758 mmHg 78%
    10:00 -2°C° 0 mm 2 mps 758 mmHg 73%
    11:00 -1°C° 0 mm 2 mps 758 mmHg 68%
    12:00 +1°C° 0 mm 2 mps 758 mmHg 63%
    13:00 +1°C° 0 mm 2 mps 758 mmHg 61%
    14:00 +1°C° 0 mm 2 mps 758 mmHg 60%
    15:00 +1°C° 0 mm 2 mps 757 mmHg 58%
    16:00 -1°C° 0 mm 2 mps 757 mmHg 61%
    17:00 -2°C° 0 mm 2 mps 757 mmHg 64%
    18:00 -3°C° 0 mm 2 mps 757 mmHg 67%
    19:00 -1°C° 0 mm 1 mps 757 mmHg 67%
    20:00 -1°C° 0 mm 1 mps 757 mmHg 67%
    21:00 -1°C° 0 mm 1 mps 757 mmHg 67%
    22:00 -1°C° 0 mm 1 mps 756 mmHg 67%
    23:00 -1°C° 0 mm 1 mps 756 mmHg 66%

    22 December, Friday

    Time Temperature Precipitation Wind Pressure Humidity
    00:00 -3°C° 0 mm 2 mps 755 mmHg 66%
    01:00 -3°C° 0 mm 2 mps 755 mmHg 66%
    02:00 -1°C° 0 mm 1 mps 755 mmHg 66%
    03:00 -2°C° 0 mm 1 mps 754 mmHg 66%
    04:00 -2°C° 0 mm 1 mps 754 mmHg 67%
    05:00 -2°C° 0 mm 1 mps 753 mmHg 67%
    06:00 -2°C° 0 mm 1 mps 753 mmHg 68%
    07:00 -2°C° 0 mm 1 mps 753 mmHg 68%
    08:00 -2°C° 0 mm 1 mps 753 mmHg 68%
    09:00 -2°C° 0 mm 1 mps 752 mmHg 69%
    10:00 -1°C° 0 mm 1 mps 752 mmHg 65%
    11:00 0°C° 0 mm 1 mps 752 mmHg 61%
    12:00 0°C° 0 mm 1 mps 752 mmHg 57%
    13:00 -2°C° 0 mm 2 mps 752 mmHg 56%
    14:00 -1°C° 0 mm 2 mps 751 mmHg 55%
    15:00 -1°C° 0 mm 2 mps 751 mmHg 55%
    16:00 -2°C° 0 mm 2 mps 751 mmHg 58%
    17:00 -3°C° 0 mm 2 mps 751 mmHg 61%
    18:00 -3°C° 0 mm 2 mps 751 mmHg 64%
    19:00 -3°C° 0 mm 2 mps 750 mmHg 65%
    20:00 -3°C° 0 mm 2 mps 750 mmHg 66%
    21:00 -4°C° 0 mm 3 mps 750 mmHg 66%
    22:00 -4°C° 0 mm 3 mps 750 mmHg 69%
    23:00 -3°C° 0 mm 4 mps 749 mmHg 72%

    23 December, Saturday

    Time Temperature Precipitation Wind Pressure Humidity
    00:00 -3°C° 0 mm 4 mps 749 mmHg 75%
    01:00 -3°C° 0.1 mm 4 mps 749 mmHg 78%
    02:00 -2°C° 0.1 mm 5 mps 748 mmHg 81%
    03:00 -2°C° 0.1 mm 5 mps 748 mmHg 84%
    04:00 -2°C° 0.1 mm 5 mps 747 mmHg 84%
    05:00 -2°C° 0.1 mm 5 mps 747 mmHg 85%
    06:00 -2°C° 0.1 mm 5 mps 747 mmHg 86%
    07:00 -3°C° 0 mm 4 mps 747 mmHg 86%
    08:00 -3°C° 0 mm 4 mps 746 mmHg 86%
    09:00 -3°C° 0 mm 4 mps 746 mmHg 86%
    10:00 -2°C° 0 mm 4 mps 746 mmHg 81%
    11:00 -1°C° 0 mm 5 mps 746 mmHg 76%
    12:00 0°C° 0 mm 5 mps 746 mmHg 71%
    13:00 0°C° 0 mm 4 mps 746 mmHg 70%
    14:00 0°C° 0 mm 4 mps 745 mmHg 70%
    15:00 +1°C° 0 mm 3 mps 745 mmHg 69%
    16:00 0°C° 0 mm 3 mps 745 mmHg 74%
    17:00 +1°C° 0 mm 2 mps 745 mmHg 79%
    18:00 -1°C° 0 mm 2 mps 745 mmHg 84%
    19:00 -1°C° 0 mm 2 mps 745 mmHg 86%
    20:00 +1°C° 0 mm 1 mps 745 mmHg 87%
    21:00 0°C° 0 mm 1 mps 745 mmHg 89%
    22:00 0°C° 0 mm 1 mps 745 mmHg 90%
    23:00 0°C° 0 mm 1 mps 745 mmHg 90%
    Show more